ProjectID,Date,Electric Generation,Electric Utility Import,Facility Electric Load
,YYYY-MM-DD,kW,kW,kW
148,2013-11-01,0.0,,0.0
148,2013-11-02,0.0,,0.0
148,2013-11-03,0.0,,0.0
148,2013-11-04,0.0,,0.0
148,2013-11-05,57.041666666666664,,57.041666666666664
148,2013-11-06,59.375,,59.375
148,2013-11-07,15.0,,15.0
148,2013-11-08,40.958333333333336,,40.958333333333336
148,2013-11-09,29.25,,29.25
148,2013-11-10,22.791666666666668,,22.791666666666668
148,2013-11-11,37.666666666666664,,37.666666666666664
148,2013-11-12,54.833333333333336,,54.833333333333336
148,2013-11-13,61.708333333333336,,61.708333333333336
148,2013-11-14,56.666666666666664,,56.666666666666664
148,2013-11-15,49.125,,49.125
148,2013-11-16,53.375,,53.375
148,2013-11-17,6.791666666666667,,6.791666666666667
148,2013-11-18,43.25,,43.25
148,2013-11-19,34.458333333333336,,34.458333333333336
148,2013-11-20,53.041666666666664,,53.041666666666664
148,2013-11-21,48.083333333333336,,48.083333333333336
148,2013-11-22,11.25,,11.25
148,2013-11-23,49.416666666666664,,49.416666666666664
148,2013-11-24,54.958333333333336,,54.958333333333336
148,2013-11-25,51.958333333333336,,51.958333333333336
148,2013-11-26,1.0416666666666667,,1.0416666666666667
148,2013-11-27,5.708333333333333,,5.708333333333333
148,2013-11-28,50.916666666666664,,50.916666666666664
148,2013-11-29,41.875,,41.875
148,2013-11-30,39.5,,39.5
148,2013-12-01,26.208333333333332,,26.208333333333332
148,2013-12-02,10.791666666666666,,10.791666666666666
148,2013-12-03,32.541666666666664,,32.541666666666664
148,2013-12-04,36.208333333333336,,36.208333333333336
148,2013-12-05,3.8333333333333335,,3.8333333333333335
148,2013-12-06,8.208333333333334,,8.208333333333334
148,2013-12-07,0.0,,0.0
148,2013-12-08,17.708333333333332,,17.708333333333332
148,2013-12-09,-0.3333333333333333,,-0.3333333333333333
148,2013-12-10,2.5833333333333335,,2.5833333333333335
148,2013-12-11,10.541666666666666,,10.541666666666666
148,2013-12-12,11.0,,11.0
148,2013-12-13,5.416666666666667,,5.416666666666667
148,2013-12-14,5.208333333333333,,5.208333333333333
148,2013-12-15,-1.0833333333333333,,-1.0833333333333333
148,2013-12-16,-0.8333333333333334,,-0.8333333333333334
148,2013-12-17,-1.0833333333333333,,-1.0833333333333333
148,2013-12-18,-1.0,,-1.0
148,2013-12-19,-1.0833333333333333,,-1.0833333333333333
148,2013-12-20,-1.125,,-1.125
148,2013-12-21,-1.1666666666666667,,-1.1666666666666667
148,2013-12-22,-1.1666666666666667,,-1.1666666666666667
148,2013-12-23,-0.75,,-0.75
148,2013-12-24,4.666666666666667,,4.666666666666667
148,2013-12-25,6.166666666666667,,6.166666666666667
148,2013-12-26,0.5416666666666666,,0.5416666666666666
148,2013-12-27,0.7083333333333334,,0.7083333333333334
148,2013-12-28,0.7083333333333334,,0.7083333333333334
148,2013-12-29,0.8333333333333334,,0.8333333333333334
148,2013-12-30,8.5,,8.5
148,2013-12-31,5.5,,5.5
148,2014-01-01,2.875,,2.875
148,2014-01-02,-0.7916666666666666,,-0.7916666666666666
148,2014-01-03,-0.8333333333333334,,-0.8333333333333334
148,2014-01-04,-0.7916666666666666,,-0.7916666666666666
148,2014-01-05,-0.75,,-0.75
148,2014-01-06,3.875,,3.875
148,2014-01-07,12.291666666666666,,12.291666666666666
148,2014-01-08,11.875,,11.875
148,2014-01-09,13.791666666666666,,13.791666666666666
148,2014-01-10,0.2916666666666667,,0.2916666666666667
148,2014-01-11,0.2916666666666667,,0.2916666666666667
148,2014-01-12,13.833333333333334,,13.833333333333334
148,2014-01-13,33.833333333333336,,33.833333333333336
148,2014-01-14,5.208333333333333,,5.208333333333333
148,2014-01-15,45.333333333333336,,45.333333333333336
148,2014-01-16,0.0,,0.0
148,2014-01-17,1.8333333333333333,,1.8333333333333333
148,2014-01-18,4.208333333333333,,4.208333333333333
148,2014-01-19,11.5,,11.5
148,2014-01-20,15.25,,15.25
148,2014-01-21,36.333333333333336,,36.333333333333336
148,2014-01-22,59.208333333333336,,59.208333333333336
148,2014-01-23,57.083333333333336,,57.083333333333336
148,2014-01-24,58.208333333333336,,58.208333333333336
148,2014-01-25,5.0,,5.0
148,2014-01-26,14.833333333333334,,14.833333333333334
148,2014-01-27,24.916666666666668,,24.916666666666668
148,2014-01-28,61.541666666666664,,61.541666666666664
148,2014-01-29,66.58333333333333,,66.58333333333333
148,2014-01-30,66.70833333333333,,66.70833333333333
148,2014-01-31,27.0,,27.0
148,2014-02-01,39.166666666666664,,39.166666666666664
148,2014-02-02,12.791666666666666,,12.791666666666666
148,2014-02-03,16.958333333333332,,16.958333333333332
148,2014-02-04,62.5,,62.5
148,2014-02-05,-0.875,,-0.875
148,2014-02-06,-0.6666666666666666,,-0.6666666666666666
148,2014-02-07,-0.625,,-0.625
148,2014-02-08,-0.5,,-0.5
148,2014-02-09,-0.4166666666666667,,-0.4166666666666667
148,2014-02-10,-0.4166666666666667,,-0.4166666666666667
148,2014-02-11,-0.08333333333333333,,-0.08333333333333333
148,2014-02-12,0.041666666666666664,,0.041666666666666664
148,2014-02-13,-0.8333333333333334,,-0.8333333333333334
148,2014-02-14,-1.0416666666666667,,-1.0416666666666667
148,2014-02-15,-1.0,,-1.0
148,2014-02-16,-0.75,,-0.75
148,2014-02-17,-0.7916666666666666,,-0.7916666666666666
148,2014-02-18,-1.125,,-1.125
148,2014-02-19,-1.125,,-1.125
148,2014-02-20,-0.5416666666666666,,-0.5416666666666666
148,2014-02-21,-0.75,,-0.75
148,2014-02-22,-0.5,,-0.5
148,2014-02-23,2.4166666666666665,,2.4166666666666665
148,2014-02-24,7.833333333333333,,7.833333333333333
148,2014-02-25,8.166666666666666,,8.166666666666666
148,2014-02-26,10.0,,10.0
148,2014-02-27,6.791666666666667,,6.791666666666667
148,2014-02-28,11.541666666666666,,11.541666666666666
148,2014-03-01,12.125,,12.125
148,2014-03-02,13.0,,13.0
148,2014-03-03,19.458333333333332,,19.458333333333332
148,2014-03-04,15.541666666666666,,15.541666666666666
148,2014-03-05,9.166666666666666,,9.166666666666666
148,2014-03-06,0.0,,0.0
148,2014-03-07,0.0,,0.0
148,2014-03-08,0.0,,0.0
148,2014-03-09,0.0,,0.0
148,2014-03-10,0.0,,0.0
148,2014-03-11,70.58333333333333,,70.58333333333333
148,2014-03-12,0.9166666666666666,,0.9166666666666666
148,2014-03-13,2.3333333333333335,,2.3333333333333335
148,2014-03-14,2.375,,2.375
148,2014-03-15,13.541666666666666,,13.541666666666666
148,2014-03-16,112.5,,112.5
148,2014-03-17,117.125,,117.125
148,2014-03-18,119.58333333333333,,119.58333333333333
148,2014-03-19,22.083333333333332,,22.083333333333332
148,2014-03-20,63.916666666666664,,63.916666666666664
148,2014-03-21,85.83333333333333,,85.83333333333333
148,2014-03-22,66.75,,66.75
148,2014-03-23,127.29166666666667,,127.29166666666667
148,2014-03-24,132.58333333333334,,132.58333333333334
148,2014-03-25,108.58333333333333,,108.58333333333333
148,2014-03-26,100.91666666666667,,100.91666666666667
148,2014-03-27,115.58333333333333,,115.58333333333333
148,2014-03-28,15.541666666666666,,15.541666666666666
148,2014-03-29,78.08333333333333,,78.08333333333333
148,2014-03-30,48.875,,48.875
148,2014-03-31,97.16666666666667,,97.16666666666667
148,2014-04-01,110.79166666666667,,110.79166666666667
148,2014-04-02,104.91666666666667,,104.91666666666667
148,2014-04-03,128.875,,128.875
148,2014-04-04,42.625,,42.625
148,2014-04-05,62.041666666666664,,62.041666666666664
148,2014-04-06,141.20833333333334,,141.20833333333334
148,2014-04-07,66.16666666666667,,66.16666666666667
148,2014-04-08,34.333333333333336,,34.333333333333336
148,2014-04-09,141.95833333333334,,141.95833333333334
148,2014-04-10,139.0,,139.0
148,2014-04-11,89.29166666666667,,89.29166666666667
148,2014-04-12,131.66666666666666,,131.66666666666666
148,2014-04-13,117.875,,117.875
148,2014-04-14,98.04166666666667,,98.04166666666667
148,2014-04-15,15.291666666666666,,15.291666666666666
148,2014-04-16,92.33333333333333,,92.33333333333333
148,2014-04-17,127.66666666666667,,127.66666666666667
148,2014-04-18,116.04166666666667,,116.04166666666667
148,2014-04-19,123.625,,123.625
148,2014-04-20,144.125,,144.125
148,2014-04-21,142.25,,142.25
148,2014-04-22,71.08333333333333,,71.08333333333333
148,2014-04-23,61.166666666666664,,61.166666666666664
148,2014-04-24,161.0,,161.0
148,2014-04-25,131.875,,131.875
148,2014-04-26,47.208333333333336,,47.208333333333336
148,2014-04-27,77.625,,77.625
148,2014-04-28,155.29166666666666,,155.29166666666666
148,2014-04-29,86.95833333333333,,86.95833333333333
148,2014-04-30,29.291666666666668,,29.291666666666668
148,2014-05-01,87.29166666666667,,87.29166666666667
148,2014-05-02,95.66666666666667,,95.66666666666667
148,2014-05-03,76.04166666666667,,76.04166666666667
148,2014-05-04,57.666666666666664,,57.666666666666664
148,2014-05-05,88.25,,88.25
148,2014-05-06,120.625,,120.625
148,2014-05-07,142.33333333333334,,142.33333333333334
148,2014-05-08,144.125,,144.125
148,2014-05-09,31.416666666666668,,31.416666666666668
148,2014-05-10,103.45833333333333,,103.45833333333333
148,2014-05-11,164.70833333333334,,164.70833333333334
148,2014-05-12,152.70833333333334,,152.70833333333334
148,2014-05-13,67.45833333333333,,67.45833333333333
148,2014-05-14,135.91666666666666,,135.91666666666666
148,2014-05-15,32.75,,32.75
148,2014-05-16,16.708333333333332,,16.708333333333332
148,2014-05-17,142.875,,142.875
148,2014-05-18,123.5,,123.5
148,2014-05-19,105.95833333333333,,105.95833333333333
148,2014-05-20,161.79166666666666,,161.79166666666666
148,2014-05-21,151.0,,151.0
148,2014-05-22,44.666666666666664,,44.666666666666664
148,2014-05-23,84.75,,84.75
148,2014-05-24,77.625,,77.625
148,2014-05-25,132.66666666666666,,132.66666666666666
148,2014-05-26,69.08333333333333,,69.08333333333333
148,2014-05-27,123.875,,123.875
148,2014-05-28,44.833333333333336,,44.833333333333336
148,2014-05-29,-0.041666666666666664,,-0.041666666666666664
148,2014-05-30,117.66666666666667,,117.66666666666667
148,2014-05-31,118.875,,118.875
148,2014-06-01,161.875,,161.875
148,2014-06-02,158.375,,158.375
148,2014-06-03,114.125,,114.125
148,2014-06-04,142.08333333333334,,142.08333333333334
148,2014-06-05,124.5,,124.5
148,2014-06-06,117.66666666666667,,117.66666666666667
148,2014-06-07,151.625,,151.625
148,2014-06-08,138.83333333333334,,138.83333333333334
148,2014-06-09,52.666666666666664,,52.666666666666664
148,2014-06-10,100.70833333333333,,100.70833333333333
148,2014-06-11,23.833333333333332,,23.833333333333332
148,2014-06-12,18.208333333333332,,18.208333333333332
148,2014-06-13,32.125,,32.125
148,2014-06-14,139.08333333333334,,139.08333333333334
148,2014-06-15,132.125,,132.125
148,2014-06-16,156.58333333333334,,156.58333333333334
148,2014-06-17,141.95833333333334,,141.95833333333334
148,2014-06-18,118.375,,118.375
148,2014-06-19,157.0,,157.0
148,2014-06-20,166.83333333333334,,166.83333333333334
148,2014-06-21,128.75,,128.75
148,2014-06-22,135.375,,135.375
148,2014-06-23,151.5,,151.5
148,2014-06-24,76.79166666666667,,76.79166666666667
148,2014-06-25,58.541666666666664,,58.541666666666664
148,2014-06-26,102.875,,102.875
148,2014-06-27,159.875,,159.875
148,2014-06-28,147.83333333333334,,147.83333333333334
148,2014-06-29,154.04166666666666,,154.04166666666666
148,2014-06-30,118.45833333333333,,118.45833333333333
148,2014-07-01,135.79166666666666,,135.79166666666666
148,2014-07-02,93.29166666666667,,93.29166666666667
148,2014-07-03,123.16666666666667,,123.16666666666667
148,2014-07-04,66.20833333333333,,66.20833333333333
148,2014-07-05,167.20833333333334,,167.20833333333334
148,2014-07-06,168.04166666666666,,168.04166666666666
148,2014-07-07,100.29166666666667,,100.29166666666667
148,2014-07-08,94.08333333333333,,94.08333333333333
148,2014-07-09,133.5,,133.5
148,2014-07-10,161.45833333333334,,161.45833333333334
148,2014-07-11,153.375,,153.375
148,2014-07-12,139.33333333333334,,139.33333333333334
148,2014-07-13,64.79166666666667,,64.79166666666667
148,2014-07-14,111.25,,111.25
148,2014-07-15,68.29166666666667,,68.29166666666667
148,2014-07-16,133.66666666666666,,133.66666666666666
148,2014-07-17,135.41666666666666,,135.41666666666666
148,2014-07-18,131.70833333333334,,131.70833333333334
148,2014-07-19,98.54166666666667,,98.54166666666667
148,2014-07-20,136.33333333333334,,136.33333333333334
148,2014-07-21,120.66666666666667,,120.66666666666667
148,2014-07-22,136.0,,136.0
148,2014-07-23,108.375,,108.375
148,2014-07-24,115.25,,115.25
148,2014-07-25,142.58333333333334,,142.58333333333334
148,2014-07-26,145.875,,145.875
148,2014-07-27,99.41666666666667,,99.41666666666667
148,2014-07-28,60.291666666666664,,60.291666666666664
148,2014-07-29,115.5,,115.5
148,2014-07-30,136.5,,136.5
148,2014-07-31,89.04166666666667,,89.04166666666667
148,2014-08-01,131.75,,131.75
148,2014-08-02,101.79166666666667,,101.79166666666667
148,2014-08-03,115.29166666666667,,115.29166666666667
148,2014-08-04,86.20833333333333,,86.20833333333333
148,2014-08-05,126.54166666666667,,126.54166666666667
148,2014-08-06,137.20833333333334,,137.20833333333334
148,2014-08-07,106.08333333333333,,106.08333333333333
148,2014-08-08,114.79166666666667,,114.79166666666667
148,2014-08-09,117.08333333333333,,117.08333333333333
148,2014-08-10,135.70833333333334,,135.70833333333334
148,2014-08-11,133.70833333333334,,133.70833333333334
148,2014-08-12,62.458333333333336,,62.458333333333336
148,2014-08-13,28.041666666666668,,28.041666666666668
148,2014-08-14,130.83333333333334,,130.83333333333334
148,2014-08-15,66.33333333333333,,66.33333333333333
148,2014-08-16,96.54166666666667,,96.54166666666667
148,2014-08-17,108.875,,108.875
148,2014-08-18,124.58333333333333,,124.58333333333333
148,2014-08-19,94.70833333333333,,94.70833333333333
148,2014-08-20,114.08333333333333,,114.08333333333333
148,2014-08-21,29.458333333333332,,29.458333333333332
148,2014-08-22,20.833333333333332,,20.833333333333332
148,2014-08-23,71.20833333333333,,71.20833333333333
148,2014-08-24,121.16666666666667,,121.16666666666667
148,2014-08-25,126.5,,126.5
148,2014-08-26,129.41666666666666,,129.41666666666666
148,2014-08-27,99.25,,99.25
148,2014-08-28,93.95833333333333,,93.95833333333333
148,2014-08-29,129.41666666666666,,129.41666666666666
148,2014-08-30,125.75,,125.75
148,2014-08-31,49.041666666666664,,49.041666666666664
148,2014-09-01,118.58333333333333,,118.58333333333333
148,2014-09-02,84.0,,84.0
148,2014-09-03,114.125,,114.125
148,2014-09-04,107.95833333333333,,107.95833333333333
148,2014-09-05,111.16666666666667,,111.16666666666667
148,2014-09-06,72.70833333333333,,72.70833333333333
148,2014-09-07,112.33333333333333,,112.33333333333333
148,2014-09-08,115.66666666666667,,115.66666666666667
148,2014-09-09,116.75,,116.75
148,2014-09-10,103.95833333333333,,103.95833333333333
148,2014-09-11,31.791666666666668,,31.791666666666668
148,2014-09-12,100.625,,100.625
148,2014-09-13,21.75,,21.75
148,2014-09-14,101.66666666666667,,101.66666666666667
148,2014-09-15,102.20833333333333,,102.20833333333333
148,2014-09-16,60.0,,60.0
148,2014-09-17,48.833333333333336,,48.833333333333336
148,2014-09-18,66.45833333333333,,66.45833333333333
148,2014-09-19,117.66666666666667,,117.66666666666667
148,2014-09-20,33.375,,33.375
148,2014-09-21,95.375,,95.375
148,2014-09-22,82.91666666666667,,82.91666666666667
148,2014-09-23,93.66666666666667,,93.66666666666667
148,2014-09-24,101.375,,101.375
148,2014-09-25,73.125,,73.125
148,2014-09-26,98.875,,98.875
148,2014-09-27,97.20833333333333,,97.20833333333333
148,2014-09-28,90.25,,90.25
148,2014-09-29,44.291666666666664,,44.291666666666664
148,2014-09-30,53.833333333333336,,53.833333333333336
148,2014-10-01,38.791666666666664,,38.791666666666664
148,2014-10-02,60.666666666666664,,60.666666666666664
148,2014-10-03,94.95833333333333,,94.95833333333333
148,2014-10-04,8.125,,8.125
148,2014-10-05,98.20833333333333,,98.20833333333333
148,2014-10-06,75.375,,75.375
148,2014-10-07,54.166666666666664,,54.166666666666664
148,2014-10-08,68.70833333333333,,68.70833333333333
148,2014-10-09,77.33333333333333,,77.33333333333333
148,2014-10-10,63.333333333333336,,63.333333333333336
148,2014-10-11,48.083333333333336,,48.083333333333336
148,2014-10-12,89.41666666666667,,89.41666666666667
148,2014-10-13,27.875,,27.875
148,2014-10-14,50.166666666666664,,50.166666666666664
148,2014-10-15,32.833333333333336,,32.833333333333336
148,2014-10-16,19.916666666666668,,19.916666666666668
148,2014-10-17,59.583333333333336,,59.583333333333336
148,2014-10-18,25.666666666666668,,25.666666666666668
148,2014-10-19,60.041666666666664,,60.041666666666664
148,2014-10-20,62.375,,62.375
148,2014-10-21,24.166666666666668,,24.166666666666668
148,2014-10-22,23.75,,23.75
148,2014-10-23,14.583333333333334,,14.583333333333334
148,2014-10-24,11.416666666666666,,11.416666666666666
148,2014-10-25,62.375,,62.375
148,2014-10-26,29.5,,29.5
148,2014-10-27,71.83333333333333,,71.83333333333333
148,2014-10-28,58.166666666666664,,58.166666666666664
148,2014-10-29,12.25,,12.25
148,2014-10-30,46.791666666666664,,46.791666666666664
148,2014-10-31,67.70833333333333,,67.70833333333333
148,2014-11-01,31.333333333333332,,31.333333333333332
148,2014-11-02,70.95833333333333,,70.95833333333333
148,2014-11-03,56.041666666666664,,56.041666666666664
148,2014-11-04,44.25,,44.25
148,2014-11-05,37.0,,37.0
148,2014-11-06,13.291666666666666,,13.291666666666666
148,2014-11-07,42.916666666666664,,42.916666666666664
148,2014-11-08,50.916666666666664,,50.916666666666664
148,2014-11-09,34.583333333333336,,34.583333333333336
148,2014-11-10,47.333333333333336,,47.333333333333336
148,2014-11-11,56.625,,56.625
148,2014-11-12,22.666666666666668,,22.666666666666668
148,2014-11-13,22.875,,22.875
148,2014-11-14,49.333333333333336,,49.333333333333336
148,2014-11-15,60.625,,60.625
148,2014-11-16,28.75,,28.75
148,2014-11-17,-0.20833333333333334,,-0.20833333333333334
148,2014-11-18,14.208333333333334,,14.208333333333334
148,2014-11-19,28.458333333333332,,28.458333333333332
148,2014-11-20,30.916666666666668,,30.916666666666668
148,2014-11-21,50.166666666666664,,50.166666666666664
148,2014-11-22,36.166666666666664,,36.166666666666664
148,2014-11-23,36.833333333333336,,36.833333333333336
148,2014-11-24,28.166666666666668,,28.166666666666668
148,2014-11-25,31.083333333333332,,31.083333333333332
148,2014-11-26,1.625,,1.625
148,2014-11-27,-0.9583333333333334,,-0.9583333333333334
148,2014-11-28,-0.8333333333333334,,-0.8333333333333334
148,2014-11-29,-0.8333333333333334,,-0.8333333333333334
148,2014-11-30,-0.875,,-0.875
148,2014-12-01,11.875,,11.875
148,2014-12-02,45.875,,45.875
148,2014-12-03,0.20833333333333334,,0.20833333333333334
148,2014-12-04,12.666666666666666,,12.666666666666666
148,2014-12-05,24.666666666666668,,24.666666666666668
148,2014-12-06,1.2083333333333333,,1.2083333333333333
148,2014-12-07,20.75,,20.75
148,2014-12-08,24.291666666666668,,24.291666666666668
148,2014-12-09,3.25,,3.25
148,2014-12-10,8.916666666666666,,8.916666666666666
148,2014-12-11,-0.7083333333333334,,-0.7083333333333334
148,2014-12-12,-0.625,,-0.625
148,2014-12-13,-0.4166666666666667,,-0.4166666666666667
148,2014-12-14,-0.75,,-0.75
148,2014-12-15,-0.5,,-0.5
148,2014-12-16,-0.5,,-0.5
148,2014-12-17,7.958333333333333,,7.958333333333333
148,2014-12-18,13.166666666666666,,13.166666666666666
148,2014-12-19,23.166666666666668,,23.166666666666668
148,2014-12-20,42.958333333333336,,42.958333333333336
148,2014-12-21,17.541666666666668,,17.541666666666668
148,2014-12-22,19.833333333333332,,19.833333333333332
148,2014-12-23,5.583333333333333,,5.583333333333333
148,2014-12-24,2.5416666666666665,,2.5416666666666665
148,2014-12-25,23.666666666666668,,23.666666666666668
148,2014-12-26,26.666666666666668,,26.666666666666668
148,2014-12-27,20.5,,20.5
148,2014-12-28,13.833333333333334,,13.833333333333334
148,2014-12-29,30.833333333333332,,30.833333333333332
148,2014-12-30,46.416666666666664,,46.416666666666664
148,2014-12-31,35.375,,35.375
148,2015-01-01,40.375,,40.375
148,2015-01-02,21.875,,21.875
148,2015-01-03,11.166666666666666,,11.166666666666666
148,2015-01-04,-0.25,,-0.25
148,2015-01-05,7.333333333333333,,7.333333333333333
148,2015-01-06,1.8333333333333333,,1.8333333333333333
148,2015-01-07,0.9166666666666666,,0.9166666666666666
148,2015-01-08,0.0,,0.0
148,2015-01-09,0.0,,0.0
148,2015-01-10,0.0,,0.0
148,2015-01-11,5.541666666666667,,5.541666666666667
148,2015-01-12,-0.625,,-0.625
148,2015-01-13,-0.375,,-0.375
148,2015-01-14,-0.25,,-0.25
148,2015-01-15,0.041666666666666664,,0.041666666666666664
148,2015-01-16,0.4166666666666667,,0.4166666666666667
148,2015-01-17,3.5833333333333335,,3.5833333333333335
148,2015-01-18,0.20833333333333334,,0.20833333333333334
148,2015-01-19,-0.041666666666666664,,-0.041666666666666664
148,2015-01-20,15.291666666666666,,15.291666666666666
148,2015-01-21,0.0,,0.0
148,2015-01-22,9.708333333333334,,9.708333333333334
148,2015-01-23,13.375,,13.375
148,2015-01-24,3.75,,3.75
148,2015-01-25,23.166666666666668,,23.166666666666668
148,2015-01-26,0.0,,0.0
148,2015-01-27,2.0416666666666665,,2.0416666666666665
148,2015-01-28,1.2083333333333333,,1.2083333333333333
148,2015-01-29,1.4583333333333333,,1.4583333333333333
148,2015-01-30,-0.7083333333333334,,-0.7083333333333334
148,2015-01-31,0.08333333333333333,,0.08333333333333333
148,2015-02-01,-0.041666666666666664,,-0.041666666666666664
148,2015-02-02,0.0,,0.0
148,2015-02-03,0.0,,0.0
148,2015-02-04,0.0,,0.0
148,2015-02-05,0.0,,0.0
148,2015-02-06,0.0,,0.0
148,2015-02-07,0.0,,0.0
148,2015-02-08,0.0,,0.0
148,2015-02-09,0.0,,0.0
148,2015-02-10,0.0,,0.0
148,2015-02-11,-1.1666666666666667,,-1.1666666666666667
148,2015-02-12,-1.1666666666666667,,-1.1666666666666667
148,2015-02-13,-1.1666666666666667,,-1.1666666666666667
148,2015-02-14,-1.1666666666666667,,-1.1666666666666667
148,2015-02-15,-1.2083333333333333,,-1.2083333333333333
148,2015-02-16,-1.2083333333333333,,-1.2083333333333333
148,2015-02-17,-1.1666666666666667,,-1.1666666666666667
148,2015-02-18,-1.125,,-1.125
148,2015-02-19,-1.1666666666666667,,-1.1666666666666667
148,2015-02-20,-1.1666666666666667,,-1.1666666666666667
148,2015-02-21,-1.1666666666666667,,-1.1666666666666667
148,2015-02-22,-1.2083333333333333,,-1.2083333333333333
148,2015-02-23,-0.041666666666666664,,-0.041666666666666664
148,2015-02-24,0.0,,0.0
148,2015-02-25,0.0,,0.0
148,2015-02-26,0.0,,0.0
148,2015-02-27,0.0,,0.0
148,2015-02-28,0.0,,0.0
148,2015-03-01,0.0,,0.0
148,2015-03-02,0.0,,0.0
148,2015-03-03,0.0,,0.0
148,2015-03-04,0.0,,0.0
148,2015-03-05,0.0,,0.0
148,2015-03-06,0.0,,0.0
148,2015-03-07,0.0,,0.0
148,2015-03-08,0.0,,0.0
148,2015-03-09,0.0,,0.0
148,2015-03-10,0.0,,0.0
148,2015-03-11,0.0,,0.0
148,2015-03-12,57.958333333333336,,57.958333333333336
148,2015-03-13,54.708333333333336,,54.708333333333336
148,2015-03-14,10.958333333333334,,10.958333333333334
148,2015-03-15,20.833333333333332,,20.833333333333332
148,2015-03-16,66.45833333333333,,66.45833333333333
148,2015-03-17,66.29166666666667,,66.29166666666667
148,2015-03-18,113.79166666666667,,113.79166666666667
148,2015-03-19,125.58333333333333,,125.58333333333333
148,2015-03-20,49.75,,49.75
148,2015-03-21,53.375,,53.375
148,2015-03-22,133.375,,133.375
148,2015-03-23,132.625,,132.625
148,2015-03-24,124.70833333333333,,124.70833333333333
148,2015-03-25,96.04166666666667,,96.04166666666667
148,2015-03-26,20.416666666666668,,20.416666666666668
148,2015-03-27,51.25,,51.25
148,2015-03-28,6.625,,6.625
148,2015-03-29,115.66666666666667,,115.66666666666667
148,2015-03-30,29.166666666666668,,29.166666666666668
148,2015-03-31,92.83333333333333,,92.83333333333333
148,2015-04-01,136.91666666666666,,136.91666666666666
148,2015-04-02,118.20833333333333,,118.20833333333333
148,2015-04-03,89.625,,89.625
148,2015-04-04,119.16666666666667,,119.16666666666667
148,2015-04-05,122.33333333333333,,122.33333333333333
148,2015-04-06,90.375,,90.375